User: anonymous   Login
Location: Nebula Knoll Observatory
(43.6666°N, 71.0000°W)
Time: 16:06:21
(UTC-04:00)
Language:

Cosmos 1782 - Orbit

View from above orbital plane
View from above orbital plane
View from above satellite
View from above satellite

Ground track
Ground track

The orbit data is extracted from the following two-line orbital elements,

1 16986U 86074A   15124.49521061  .00002337  00000-0  16303-3 0  9997
2 16986 082.5066 154.1126 0013187 104.0021 256.2672 15.04884675554267
Epoch (UTC): 04 May 2015 11:53:06
Eccentricity: 0.0013187
inclination: 82.5066°
perigee height: 543 km
apogee height: 561 km
right ascension of ascending node: 154.1126°
argument of perigee: 104.0021°
revolutions per day: 15.04884675
mean anomaly at epoch: 256.2672°
orbit number at epoch: 55426

The dashed part of the orbit path shows where the satellite is in the earth's shadow,  

DLR